カタログに戻る

FLOCK 4G 11

運用中科学SSO
NORAD 62629·PAYLOAD·🇺🇸 United States

打ち上げ Jan 14, 2025 から Vandenberg Space Force Base

Loading…

次のパス (今後24時間)

TLE

最新Source: CelesTrak SupGP

元期: Sep 14, 2026, 12:45 UTC

1 62629C 25009W   26257.53136574  .00015796  00000+0  52861-3 0  2576
2 62629  97.3872 338.5141 0002823  36.9898 131.1677 15.31010698    17

AllMySatでFLOCK 4G 11をリアルタイム追跡

Download on the App Store